Flag for Bosnia-Herzegovina Weather past 2 weeks in Mostar, Bosnia-Herzegovina

Now
57 °F

Passing clouds.


Feels Like: 56 °F
Forecast: 31 / 52 °F
Wind: 7 mph from West

Location: Mostar

Current Time: Apr 2, 2015 at 12:47:56 PM

Latest Report: Apr 2, 2015 at 12:30 PM


Visibility: N/A

Pressure: 30.01 "Hg

Humidity: 21%

Dew point: 18 °F

Location of MostarLocation

Historic Weather in Mostar — Graph

°F

Mostar temperature yesterday

Maximum temperature yesterday: 59 °F (at 1:00 PM)
Minimum temperature yesterday: 50 °F (at 10:00 AM)
Average temperature yesterday: 54 °F

Past Weeks' High & Low Weather Summary

 TemperatureHumidityPressure
High73 °F (Mar 27, 12:30 PM)100% (Mar 23, 12:00 AM)30.24 "Hg (Mar 23, 12:00 AM)
Low28 °F (Mar 21, 6:00 AM)20% (Mar 20, 3:00 PM)29.47 "Hg (Mar 27, 1:00 PM)
Average53 °F57%29.90 "Hg
* Reported Mar 18 10:00 AM — Apr 2 11:30 AM, Mostar, Weather by CustomWeather, © 2015

Note: Actual official high and low records may vary slightly from our data, if they occured in-between our weather recording intervals... More about our weather records

Advertising

Mostar weather history for previous 24 hours

 ConditionsComfort  
Time TempWeatherWind HumidityBarometerVisibility
11:30 AM
Thu, Apr 2
57 °FPassing clouds.5 mph27%30.04 "HgN/A
11:00 AM54 °FSunny.3 mph28%30.07 "Hg10 mi
10:30 AM52 °FSunny.3 mph32%30.07 "Hg10 mi
10:00 AM52 °FSunny.3 mph32%30.07 "Hg10 mi
9:30 AM50 °FPassing clouds.3 mph35%30.07 "HgN/A
9:00 AM48 °FPassing clouds.5 mph34%30.07 "HgN/A
8:30 AM46 °FPassing clouds.3 mph40%30.07 "HgN/A
8:00 AM41 °FPassing clouds.5 mph53%30.07 "HgN/A
7:30 AM39 °FPassing clouds.8 mph56%30.04 "HgN/A
7:00 AM39 °FPassing clouds.6 mph52%30.04 "HgN/A
6:00 AM43 °FPassing clouds.6 mph39%30.04 "HgN/A
5:00 AM45 °FClear.2 mph39%30.04 "Hg10 mi
4:00 AM46 °FClear.9 mph37%30.01 "Hg10 mi
3:00 AM48 °FClear.17 mph32%30.01 "Hg10 mi
2:00 AM48 °FClear.17 mph32%30.01 "HgN/A
1:00 AM48 °FClear.14 mph37%29.98 "Hg10 mi
12:00 AM50 °FPassing clouds.20 mph30%29.98 "HgN/A
11:00 PM
Wed, Apr 1
50 °FPassing clouds.7 mph30%29.95 "HgN/A
10:00 PM52 °FPassing clouds.12 mph30%29.92 "HgN/A
9:00 PM50 °FPassing clouds.13 mph43%29.92 "HgN/A
8:00 PM52 °FPassing clouds.13 mph44%29.89 "HgN/A
7:00 PM54 °FPassing clouds.2 mph47%29.83 "HgN/A
6:00 PM52 °FScattered clouds.7 mph72%29.80 "HgN/A
5:00 PM52 °FLight rain. Broken clouds.7 mph67%29.80 "HgN/A
4:00 PM50 °FRain. Fog.18 mph76%29.80 "Hg3 mi
3:00 PM59 °FBroken clouds.6 mph45%29.71 "HgN/A
2:00 PM59 °FBroken clouds.3 mph45%29.74 "HgN/A
1:30 PM59 °FBroken clouds.6 mph51%29.74 "HgN/A
1:00 PM59 °FPartly sunny.3 mph55%29.77 "HgN/A
12:30 PM55 °FPartly sunny.3 mph63%29.77 "HgN/A
12:00 PM54 °FBroken clouds.8 mph77%29.77 "HgN/A
Weather by CustomWeather, © 2015

See weather overviewHow to use our weather pages